| time (UTC) | temp F | wind direction | speed MPH | gust MPH | rain 1hr in | rain 24hr in | rain mn in | humidity % | barometer mb |
| 20260506203051 | 53 | 310 | 2.0 | 7.0 | 0.00 | 0.20 | 0.05 | 87 | 1009.3 |
| 20260506201604 | 53 | 317 | 2.0 | 9.0 | 0.00 | 0.20 | 0.05 | 87 | 1009.3 |
| 20260506200051 | 54 | 0 | 1.0 | 5.0 | 0.00 | 0.20 | 0.05 | 87 | 1009.0 |
| 20260506194553 | 54 | 330 | 2.0 | 5.0 | 0.00 | 0.20 | 0.05 | 87 | 1008.8 |
| 20260506193051 | 54 | 314 | 1.0 | 5.0 | 0.00 | 0.20 | 0.05 | 86 | 1008.6 |
| 20260506191548 | 54 | 304 | 3.0 | 8.0 | 0.00 | 0.20 | 0.05 | 86 | 1008.4 |
| 20260506190051 | 54 | 333 | 2.0 | 11.0 | 0.00 | 0.20 | 0.05 | 87 | 1008.3 |
| 20260506184554 | 55 | 333 | 0.0 | 7.0 | 0.00 | 0.20 | 0.05 | 89 | 1008.1 |
| 20260506183047 | 55 | 349 | 1.0 | 7.0 | 0.01 | 0.20 | 0.05 | 88 | 1007.8 |
| 20260506181606 | 55 | 308 | 1.0 | 7.0 | 0.03 | 0.20 | 0.05 | 88 | 1007.7 |
| 20260506180048 | 55 | 317 | 2.0 | 7.0 | 0.03 | 0.20 | 0.05 | 88 | 1007.5 |
| 20260506174549 | 56 | 300 | 3.0 | 8.0 | 0.03 | 0.20 | 0.05 | 87 | 1007.5 |
| 20260506173112 | 56 | 275 | 7.0 | 10.0 | 0.03 | 0.18 | 0.03 | 86 | 1007.2 |
| 20260506171556 | 57 | 265 | 5.0 | 13.0 | 0.02 | 0.17 | 0.02 | 83 | 1007.1 |
| 20260506170050 | 59 | 259 | 9.0 | 15.0 | 0.02 | 0.17 | 0.02 | 78 | 1006.9 |
| 20260506164547 | 60 | 252 | 7.0 | 17.0 | 0.01 | 0.16 | 0.01 | 75 | 1006.6 |
| 20260506163102 | 63 | 237 | 4.0 | 8.0 | 0.00 | 0.14 | 0.00 | 66 | 1006.2 |
| 20260506161546 | 63 | 208 | 4.0 | 9.0 | 0.00 | 0.14 | 0.00 | 64 | 1006.1 |
| 20260506160046 | 64 | 205 | 2.0 | 6.0 | 0.00 | 0.14 | 0.00 | 64 | 1006.1 |
| 20260506154552 | 64 | 266 | 4.0 | 9.0 | 0.00 | 0.14 | 0.00 | 63 | 1006.3 |
| 20260506153048 | 64 | 252 | 1.0 | 11.0 | 0.00 | 0.14 | 0.00 | 62 | 1006.4 |
| 20260506151549 | 64 | 287 | 2.0 | 12.0 | 0.00 | 0.14 | 0.00 | 63 | 1006.3 |
| 20260506150055 | 64 | 217 | 5.0 | 11.0 | 0.00 | 0.14 | 0.00 | 61 | 1006.3 |
| 20260506144550 | 63 | 248 | 6.0 | 12.0 | 0.00 | 0.21 | 0.00 | 62 | 1006.0 |
| 20260506143051 | 64 | 252 | 6.0 | 14.0 | 0.00 | 0.21 | 0.00 | 61 | 1006.0 |
| 20260506141553 | 64 | 246 | 6.0 | 16.0 | 0.00 | 0.21 | 0.00 | 59 | 1006.0 |
| 20260506140058 | 64 | 187 | 7.0 | 16.0 | 0.00 | 0.21 | 0.00 | 58 | 1006.0 |
| 20260506134545 | 65 | 240 | 8.0 | 16.0 | 0.00 | 0.23 | 0.00 | 61 | 1005.9 |
| 20260506133047 | 64 | 277 | 9.0 | 14.0 | 0.00 | 0.23 | 0.00 | 63 | 1006.1 |
| 20260506131545 | 64 | 231 | 9.0 | 13.0 | 0.00 | 0.23 | 0.00 | 63 | 1006.0 |
| 20260506130054 | 65 | 237 | 6.0 | 15.0 | 0.00 | 0.23 | 0.00 | 62 | 1006.1 |
| 20260506124550 | 64 | 272 | 6.0 | 15.0 | 0.00 | 0.23 | 0.00 | 65 | 1006.1 |
| 20260506123050 | 64 | 223 | 6.0 | 15.0 | 0.00 | 0.23 | 0.00 | 64 | 1006.0 |
| 20260506121547 | 62 | 281 | 5.0 | 11.0 | 0.00 | 0.23 | 0.00 | 66 | 1006.2 |
| 20260506120106 | 63 | 261 | 6.0 | 13.0 | 0.00 | 0.23 | 0.00 | 65 | 1006.2 |
| 20260506114558 | 62 | 264 | 9.0 | 14.0 | 0.00 | 0.23 | 0.00 | 64 | 1006.4 |
| 20260506113045 | 63 | 230 | 8.0 | 14.0 | 0.00 | 0.23 | 0.00 | 65 | 1006.4 |
| 20260506111552 | 63 | 263 | 9.0 | 14.0 | 0.00 | 0.23 | 0.00 | 66 | 1006.5 |
| 20260506110045 | 62 | 210 | 8.0 | 16.0 | 0.00 | 0.23 | 0.00 | 68 | 1006.6 |
| 20260506104547 | 61 | 249 | 6.0 | 14.0 | 0.00 | 0.23 | 0.00 | 70 | 1006.6 |
| 20260506103048 | 61 | 169 | 7.0 | 15.0 | 0.00 | 0.23 | 0.00 | 72 | 1006.5 |
| 20260506101549 | 61 | 242 | 11.0 | 19.0 | 0.00 | 0.23 | 0.00 | 72 | 1006.7 |
| 20260506100049 | 60 | 162 | 13.0 | 18.0 | 0.00 | 0.23 | 0.00 | 73 | 1006.7 |
| 20260506094548 | 60 | 244 | 6.0 | 16.0 | 0.00 | 0.23 | 0.00 | 74 | 1006.8 |
| 20260506093105 | 60 | 195 | 11.0 | 18.0 | 0.00 | 0.23 | 0.00 | 74 | 1006.7 |
| 20260506091554 | 60 | 217 | 7.0 | 14.0 | 0.00 | 0.23 | 0.00 | 76 | 1006.6 |
| 20260506090056 | 60 | 217 | 7.0 | 13.0 | 0.00 | 0.23 | 0.00 | 77 | 1006.7 |
| 20260506084548 | 60 | 188 | 8.0 | 14.0 | 0.00 | 0.23 | 0.00 | 78 | 1006.5 |
| 20260506083050 | 59 | 186 | 10.0 | 17.0 | 0.00 | 0.23 | 0.00 | 80 | 1006.5 |
| 20260506081545 | 59 | 242 | 4.0 | 10.0 | 0.00 | 0.23 | 0.00 | 80 | 1006.5 |
| 20260506073046 | 58 | 182 | 7.0 | 11.0 | 0.00 | 0.23 | 0.00 | 84 | 1006.5 |
| 20260506071540 | 58 | 212 | 4.0 | 12.0 | 0.00 | 0.23 | 0.00 | 86 | 1006.6 |
| 20260506061556 | 55 | 247 | 4.0 | 10.0 | 0.00 | 0.23 | 0.00 | 91 | 1006.6 |
| 20260506044546 | 53 | 160 | 3.0 | 8.0 | 0.00 | 0.23 | 0.00 | 95 | 1006.8 |
| 20260506043053 | 53 | 217 | 6.0 | 10.0 | 0.00 | 0.23 | 0.00 | 95 | 1006.7 |
| 20260506041605 | 53 | 200 | 6.0 | 10.0 | 0.00 | 0.23 | 0.00 | 95 | 1006.7 |
| 20260506040055 | 53 | 200 | 5.0 | 9.0 | 0.00 | 0.23 | 0.00 | 95 | 1006.7 |
| 20260506034551 | 53 | 189 | 6.0 | 11.0 | 0.00 | 0.23 | 0.00 | 95 | 1006.8 |
| 20260506033052 | 54 | 199 | 7.0 | 13.0 | 0.00 | 0.23 | 0.00 | 95 | 1006.7 |
| 20260506031547 | 54 | 207 | 7.0 | 12.0 | 0.00 | 0.23 | 0.00 | 95 | 1006.9 |
| 20260506030049 | 53 | 195 | 5.0 | 8.0 | 0.00 | 0.23 | 0.00 | 95 | 1007.1 |
| 20260506024549 | 54 | 209 | 4.0 | 9.0 | 0.00 | 0.23 | 0.00 | 95 | 1007.0 |
| 20260506023055 | 54 | 182 | 3.0 | 7.0 | 0.00 | 0.23 | 0.00 | 95 | 1007.0 |
| 20260506021547 | 54 | 198 | 4.0 | 10.0 | 0.00 | 0.23 | 0.00 | 95 | 1007.1 |
| 20260506020114 | 54 | 190 | 5.0 | 11.0 | 0.00 | 0.23 | 0.00 | 95 | 1007.0 |
| 20260506014550 | 54 | 177 | 6.0 | 13.0 | 0.00 | 0.23 | 0.00 | 95 | 1007.0 |
| 20260506013051 | 54 | 194 | 8.0 | 11.0 | 0.00 | 0.23 | 0.00 | 95 | 1007.2 |
| 20260506011552 | 54 | 158 | 4.0 | 10.0 | 0.00 | 0.23 | 0.00 | 95 | 1007.1 |
| 20260506010050 | 55 | 179 | 6.0 | 11.0 | 0.00 | 0.23 | 0.00 | 95 | 1007.4 |
| 20260506004546 | 55 | 190 | 7.0 | 13.0 | 0.00 | 0.23 | 0.00 | 95 | 1007.5 |
| 20260506003047 | 55 | 185 | 8.0 | 12.0 | 0.00 | 0.23 | 0.00 | 95 | 1007.5 |
| 20260506001602 | 55 | 152 | 7.0 | 12.0 | 0.00 | 0.23 | 0.00 | 95 | 1007.4 |
| 20260506000113 | 55 | 171 | 6.0 | 13.0 | 0.00 | 0.23 | 0.00 | 95 | 1007.5 |
| 20260505234552 | 55 | 194 | 6.0 | 11.0 | 0.00 | 0.23 | 0.00 | 95 | 1007.8 |
| 20260505233053 | 55 | 185 | 6.0 | 9.0 | 0.00 | 0.23 | 0.00 | 94 | 1007.8 |
| 20260505231556 | 56 | 202 | 6.0 | 10.0 | 0.00 | 0.23 | 0.00 | 94 | 1007.8 |
| 20260505230049 | 55 | 202 | 7.0 | 10.0 | 0.00 | 0.23 | 0.00 | 94 | 1007.8 |
| 20260505224552 | 55 | 182 | 5.0 | 10.0 | 0.00 | 0.23 | 0.00 | 94 | 1007.9 |
| 20260505223053 | 56 | 188 | 4.0 | 9.0 | 0.00 | 0.23 | 0.00 | 94 | 1007.9 |
| 20260505221557 | 56 | 167 | 6.0 | 11.0 | 0.01 | 0.23 | 0.00 | 94 | 1007.8 |
| 20260505220103 | 56 | 162 | 5.0 | 10.0 | 0.05 | 0.23 | 0.00 | 95 | 1007.8 |
| 20260505214551 | 56 | 149 | 6.0 | 10.0 | 0.10 | 0.23 | 0.23 | 94 | 1007.8 |
| 20260505213043 | 57 | 200 | 5.0 | 9.0 | 0.11 | 0.22 | 0.22 | 94 | 1008.0 |
| 20260505211621 | 57 | 153 | 5.0 | 9.0 | 0.10 | 0.22 | 0.22 | 94 | 1008.0 |
| 20260505210057 | 57 | 169 | 4.0 | 7.0 | 0.09 | 0.18 | 0.18 | 94 | 1008.1 |
| 20260505204602 | 57 | 188 | 2.0 | 4.0 | 0.04 | 0.13 | 0.13 | 93 | 1008.0 |